{"data":{"norad_id":66678,"intl_designator":"2025-276N","name":"LEMUR-2-DEANANDMAEVE","alt_names":[],"object_type":"PAYLOAD","status":"ACTIVE","operator":null,"country":"US","launch_date":"2025-11-28","launch_site_code":"AFWTR","launch_vehicle":null,"mission":null,"orbit_class":"UNKNOWN","rcs_meters":null,"size_class":null,"mass_kg":null,"dimensions":null,"purposes":["earth_obs"],"wikipedia_slug":null,"has_3d_model":false,"image_url":null,"decayed_at":null,"tle_current":{"epoch":"2026-05-25T04:50:01.938048Z","epoch_age_seconds":58439,"freshness":"FRESH","line1":"1 66678U 25276N   26145.20141132  .00006512  00000+0  31065-3 0  9998","line2":"2 66678  97.4217 219.0635 0007389  84.2742 275.9335 15.19393307 26929","mean_motion":15.19393307,"eccentricity":0.0007389,"inclination_deg":97.4217,"raan_deg":219.0635,"arg_perigee_deg":84.2742,"mean_anomaly_deg":275.9335,"bstar":0.00031065,"rev_number":2692,"period_min":94.774670479709,"perigee_km":502.58507938084,"apogee_km":512.76092940533,"semimajor_km":6885.8100043931,"source":"CELESTRAK","updated_at":"2026-05-25T13:38:13.573356Z"}}}